{"data":{"norad_id":45438,"intl_designator":"2020-020Q","name":"ONEWEB-0085","alt_names":[],"object_type":"PAYLOAD","status":"ACTIVE","operator":null,"country":"UK","launch_date":"2020-03-21","launch_site_code":"TYMSC","launch_vehicle":null,"mission":null,"orbit_class":"UNKNOWN","rcs_meters":null,"size_class":null,"mass_kg":null,"dimensions":null,"purposes":["comms"],"wikipedia_slug":null,"has_3d_model":false,"image_url":null,"decayed_at":null,"tle_current":{"epoch":"2026-09-20T01:04:03.936000Z","epoch_age_seconds":53881,"freshness":"FRESH","line1":"1 45438U 20020Q   26263.04449000  .00000502  00000+0  13803-2 0  9991","line2":"2 45438  87.8972   2.2104 0001782 103.3467 256.7859 13.11414654315100","mean_motion":13.11414654,"eccentricity":0.0001782,"inclination_deg":87.8972,"raan_deg":2.2104,"arg_perigee_deg":103.3467,"mean_anomaly_deg":256.7859,"bstar":0.0013803,"rev_number":31510,"period_min":109.80508686614,"perigee_km":1216.3379681626,"apogee_km":1219.045121456,"semimajor_km":7595.8285448093,"source":"CELESTRAK","updated_at":"2026-09-20T09:00:44.555068Z"}}}